(337569) = 2001 SG296

Discovered at Socorro on 2001-09-20 by LINEAR.

Orbit

Orbit type: Main Belt

Note: WebGL enabled browser required.

epoch2023-09-13.0
epoch JD2460200.5
perihelion date2022-09-18.65185
perihelion JD2459841.15185
argument of perihelion (°)320.53998
ascending node (°)330.55518
inclination (°)6.16075
eccentricity0.1644561
perihelion distance (AU)1.9548407
Tisserand w.r.t. Jupiter3.5
ΔV w.r.t. Earth (km/sec)8.9
semimajor axis (AU)2.3396025
mean anomaly (°)98.97059
mean daily motion (°/day)0.27541700
aphelion distance (AU)2.724
period (years)3.58
P-vector [x]0.36172227
P-vector [y]-0.82593309
P-vector [z]-0.43242517
Q-vector [x]0.93079203
Q-vector [y]0.29369708
Q-vector [z]0.21764243
absolute magnitude17.91
phase slope0.15
uncertainty0
referenceMPEC 2023-Y71
observations used132
oppositions12
arc length (days)8149
first opposition used2001
last opposition used2023
residual rms (arc-secs)0.83
perturbers coarse indicatorM-v
perturbers precise indicator003Ek
first observation date used2001-08-24.0
last observation date used2023-12-16.0
computer nameMPCLINUX
JD of orbit computation2456670.643234
perihelion JD uncertainty (days)1.0797E-04
argument of perihelion uncertainty (°)5.8908E-05
ascending node uncertainty (°)5.2349E-05
inclination uncertainty (°)7.9690E-06
eccentricity uncertainty 4.8553E-08
perihelion distance uncertainty (AU)1.1707E-07
Minimum Orbit Intersection Distances (in AU)
for orbit epoch: 2460200.5, reference: E2023-Y71
Mercury1.50092
Venus1.22753
Earth0.9428
Mars0.53131
Jupiter2.46431
Saturn6.36096
Uranus15.8469
Neptune27.3539

Observations

132 total observations over interval: 2001 08 24.39153 – 2023 12 16.272927
These data are available for download (format description).

